Location: Saalfelden+am+Steinernen+Meer
(47.4274°N, 12.8411°E)
Time: 10:12:22
(UTC+02:00)

Tiangong 1 - Visible Passes

Search period start: 22 September 2017 00:00
Search period end: 02 October 2017 00:00
Orbit: 303 x 328 km, 42.8° (Epoch: 21 September)

Date Brightness Start Highest point End Pass type
(mag) Time Alt. Az. Time Alt. Az. Time Alt. Az.
22 Sep 2.0 05:39:56 23° SSW 05:40:22 24° S 05:42:37 10° SE visible
23 Sep 2.5 05:53:07 16° SW 05:53:47 17° SSW 05:55:40 10° SSE visible
24 Sep 3.1 06:06:18 10° SW 06:07:02 11° SSW 06:07:47 10° S visible
